Location: Delta State University
(33.7460°N, 90.7320°W)
Time: 22:29:34
(UTC-05:00)

Iridium 13 - Visible Passes

Search period start: 29 June 2015 00:00
Search period end: 09 July 2015 00:00
Orbit: 776 x 779 km, 86.4° (Epoch: 29 June)

Date Brightness Start Highest point End Pass type
(mag) Time Alt. Az. Time Alt. Az. Time Alt. Az.
29 Jun 6.5 01:47:24 43° NE 01:47:24 43° NE 01:51:13 10° NNE visible
29 Jun 7.6 03:27:52 13° WNW 03:27:52 13° WNW 03:29:42 10° NW visible
30 Jun 7.2 01:14:02 25° ENE 01:14:02 25° ENE 01:17:11 10° NNE visible
30 Jun 7.0 02:54:30 24° WNW 02:54:30 24° WNW 02:57:44 10° NNW visible
01 Jul 7.9 00:40:40 14° ENE 00:40:40 14° ENE 00:42:17 10° NE visible
01 Jul 6.5 02:21:08 40° NW 02:21:08 40° NW 02:24:49 10° N visible
02 Jul 6.4 01:47:45 47° N 01:47:45 47° N 01:51:26 10° N visible
03 Jul 6.9 01:14:22 33° NE 01:14:22 33° NE 01:17:39 10° NNE visible
03 Jul 7.5 02:54:50 16° WNW 02:54:50 16° WNW 02:57:06 10° NW visible
04 Jul 7.6 00:40:58 19° ENE 00:40:58 19° ENE 00:43:22 10° NE visible
04 Jul 7.0 02:21:27 28° NW 02:21:27 28° NW 02:24:37 10° NNW visible
05 Jul 6.6 01:48:03 41° NNW 01:48:03 41° NNW 01:51:30 10° N visible
06 Jul 6.7 01:14:38 39° NNE 01:14:38 39° NNE 01:17:57 10° N visible
06 Jul 7.9 02:55:07 11° WNW 02:55:07 11° WNW 02:55:40 10° WNW visible
07 Jul 7.2 00:41:14 25° NE 00:41:14 25° NE 00:44:00 10° NNE visible
07 Jul 7.4 02:21:42 20° NW 02:21:42 20° NW 02:24:12 10° NNW visible
08 Jul 7.8 00:07:49 15° ENE 00:07:49 15° ENE 00:09:22 10° NE visible
08 Jul 6.9 01:48:17 32° NW 01:48:17 32° NW 01:51:24 10° NNW visible
